Photometre #359[Standard_N] Warsaw_UW AOT

File : 20200928_359.hum

28/09/2020,05:31:38,TEMP=22.2,BA=5.64,STAT.h
28/09/2020,05:31:39,TEMP=22.2,BA=5.64,STAT.h
28/09/2020,05:35:56,TEMP=22.2,BA=5.64,STAT.h
28/09/2020,05:35:57,TEMP=22.2,BA=5.64,STAT.h
28/09/2020,05:40:58,TEMP=22.2,BA=5.68,STAT.h
28/09/2020,05:40:59,TEMP=22.2,BA=5.68,STAT.h
28/09/2020,05:46:59,TEMP=22.2,BA=5.68,STAT.h
28/09/2020,05:54:16,TEMP=22.2,BA=5.68,STAT.h
28/09/2020,05:54:17,TEMP=22.2,BA=5.68,STAT.h
28/09/2020,06:03:18,TEMP=22.2,BA=5.68,STAT.h
28/09/2020,06:03:19,TEMP=22.2,BA=5.68,STAT.h
28/09/2020,06:14:50,TEMP=22.2,BA=5.68,STAT.h
28/09/2020,06:14:56,TEMP=22.2,BA=5.68,STAT.h
28/09/2020,06:20:24,TEMP=22.2,BA=5.68,STAT.h
28/09/2020,06:20:25,TEMP=22.2,BA=5.68,STAT.h
28/09/2020,06:27:02,TEMP=11.0,BA=5.68,STAT.A=4.0,ExtBa=14.70
28/09/2020,06:34:09,TEMP=11.2,BA=5.64,STAT.A=4.0,ExtBa=14.70
28/09/2020,06:42:20,TEMP=11.6,BA=5.64,STAT.A=4.0,ExtBa=14.70
28/09/2020,06:51:51,TEMP=12.2,BA=5.64,STAT.C=5.0,ExtBa=14.70
28/09/2020,07:03:58,TEMP=12.9,BA=5.60,STAT.A=4.0,ExtBa=14.30
28/09/2020,07:16:40,TEMP=13.5,BA=5.60,STAT.A=5.0,ExtBa=14.70
28/09/2020,07:27:05,TEMP=14.1,BA=5.64,STAT.F,ExtBa=14.70
28/09/2020,07:42:02,TEMP=14.5,BA=5.60,STAT.D=5.0,ExtBa=14.40
28/09/2020,07:57:02,TEMP=15.1,BA=5.60,STAT.D=5.0,ExtBa=14.60
28/09/2020,08:12:03,TEMP=16.4,BA=5.60,STAT.D=5.0,ExtBa=14.60
28/09/2020,08:42:01,TEMP=16.7,BA=5.60,STAT.D=5.0,ExtBa=13.30
28/09/2020,08:56:56,TEMP=17.0,BA=5.60,STAT.b=5.0
28/09/2020,09:12:03,TEMP=17.9,BA=5.60,STAT.D=5.0,ExtBa=14.40
28/09/2020,09:27:04,TEMP=18.0,BA=5.60,STAT.F,ExtBa=14.30
28/09/2020,09:42:04,TEMP=18.0,BA=5.60,STAT.D=5.0,ExtBa=13.80
28/09/2020,09:57:04,TEMP=17.9,BA=5.60,STAT.D=5.0,ExtBa=13.80
28/09/2020,10:12:04,TEMP=17.6,BA=5.60,STAT.D=5.0,ExtBa=13.10
28/09/2020,10:27:05,TEMP=15.9,BA=5.60,STAT.F,ExtBa=12.90
28/09/2020,10:42:02,TEMP=15.7,BA=5.60,STAT.D=5.0,ExtBa=13.20
28/09/2020,10:57:04,TEMP=16.0,BA=5.60,STAT.D=5.0,ExtBa=12.90
28/09/2020,11:12:02,TEMP=15.9,BA=5.60,STAT.D=5.0,ExtBa=13.00
28/09/2020,11:27:04,TEMP=16.9,BA=5.60,STAT.F,ExtBa=13.40
28/09/2020,11:42:03,TEMP=17.8,BA=5.60,STAT.D=5.0,ExtBa=12.80
28/09/2020,11:57:03,TEMP=18.8,BA=5.60,STAT.D=5.0,ExtBa=12.80
28/09/2020,12:12:02,TEMP=19.7,BA=5.60,STAT.D=5.0,ExtBa=12.80
28/09/2020,12:27:05,TEMP=19.8,BA=5.60,STAT.F,ExtBa=12.80
28/09/2020,12:42:03,TEMP=19.8,BA=5.56,STAT.D=5.0,ExtBa=12.70
28/09/2020,12:57:03,TEMP=20.4,BA=5.60,STAT.D=5.0,ExtBa=12.80
28/09/2020,13:12:02,TEMP=18.9,BA=5.60,STAT.D=5.0,ExtBa=12.80
28/09/2020,13:27:03,TEMP=18.1,BA=5.60,STAT.F,ExtBa=12.70
28/09/2020,13:37:29,TEMP=17.9,BA=5.60,STAT.A=5.0,ExtBa=12.70
28/09/2020,13:51:01,TEMP=17.6,BA=5.60,STAT.A=5.0,ExtBa=12.70
28/09/2020,14:02:16,TEMP=17.3,BA=5.60,STAT.C=5.0,ExtBa=12.70
28/09/2020,14:11:48,TEMP=17.0,BA=5.60,STAT.A=5.0,ExtBa=12.70
28/09/2020,14:19:59,TEMP=16.7,BA=5.60,STAT.A=5.0,ExtBa=12.70
28/09/2020,14:27:06,TEMP=16.5,BA=5.52,STAT.A=5.0,ExtBa=12.70
28/09/2020,14:33:22,TEMP=16.4,BA=5.56,STAT.A=5.0,ExtBa=12.70
28/09/2020,14:38:55,TEMP=16.3,BA=5.56,STAT.B=5.0,ExtBa=12.70
28/09/2020,14:50:28,TEMP=16.0,BA=5.56,STAT.A=5.0,ExtBa=12.70
28/09/2020,14:59:30,TEMP=15.9,BA=5.56,STAT.A=5.0,ExtBa=12.70
28/09/2020,15:06:46,TEMP=15.8,BA=5.44,STAT.A=5.0,ExtBa=12.70
28/09/2020,15:12:48,TEMP=15.8,BA=5.48,STAT.A=5.0,ExtBa=12.70
28/09/2020,15:17:50,TEMP=15.7,BA=5.48,STAT.A=5.0,ExtBa=12.70
28/09/2020,15:22:06,TEMP=15.7,BA=5.40,STAT.A=5.0,ExtBa=12.60